Weather History for Burns, OR

Change the Weather History Date:

Sunday, January 13, 2013

  Actual Average Record
Temperature  
Mean Temperature 1 °F 25 °F  
Max Temperature 16 °F 35 °F 53 °F (1945)
Min Temperature -15 °F 15 °F -15 °F (2013)
Degree Days  
Heating Degree Days 64 40  
Month to date heating degree days 697 531  
Since 1 July heating degree days 3587 3798  
Cooling Degree Days 0 0  
Month to date cooling degree days 0 0  
Year to date cooling degree days 0 0  
Moisture  
Dew Point -7 °F    
Average Humidity 77    
Maximum Humidity 87    
Minimum Humidity 67    
Precipitation  
Precipitation 0.00 in 0.04 in 0.39 in (1941)
Month to date precipitation 0.08 0.57  
Year to date precipitation 0.08 0.57  
Sea Level Pressure  
Sea Level Pressure 30.34 in    
Wind  
Wind Speed 2 mph (North)    
Max Wind Speed 7 mph    
Max Gust Speed 7 mph    
Visibility 6 miles    
Events Fog    
T = Trace of Precipitation, MM = Missing Value Source: NWS Daily Summary

Daily Weather History Graph

Daily Weather History Graph

Search for Another Location

Airport:

Trip Planner

Search our weather history database for the weather conditions in past years. The results will help you decide how hot, cold, wet, or windy it might be!

Date:

Astronomy

Jan. 13, 2013 Rise Set
Actual Time 7:26 AM PST 4:42 PM PST
Civil Twilight 6:54 AM PST 5:14 PM PST
Nautical Twilight 6:19 AM PST 5:50 PM PST
Astronomical Twilight 5:45 AM PST 6:24 PM PST
Moon 8:22 AM PST (1/13) 7:33 PM PST (1/13)
Length of Visible Light 10h 19m
Length of Day
9h 16m
Waxing Crescent, 6% of the Moon is Illuminated
Jan 13
Waxing Crescent
Jan 18
First Quarter
Jan 26
Full
Feb 3
Last Quarter
Feb 9
New

Hourly Weather History & Observations

Time (PST) Temp. Windchill Dew Point Humidity Pressure Visibility Wind Dir Wind Speed Gust Speed Precip Events Conditions
12:25 AM -14.8 °F - -18.4 °F 84% 30.15 in 2.5 mi Calm Calm - N/A   Partly Cloudy
12:29 AM -13.0 °F - -16.6 °F 84% 30.15 in 1.0 mi Calm Calm - N/A   Mist
12:37 AM -11.2 °F -20.6 °F -16.6 °F 77% 30.16 in 0.8 mi NW 3.5 mph - N/A   Mist
12:42 AM -11.2 °F - -14.8 °F 84% 30.16 in 1.2 mi Calm Calm - N/A   Partly Cloudy
12:51 AM -9.4 °F - -14.8 °F 77% 30.16 in 2.0 mi Calm Calm - N/A   Partly Cloudy
12:53 AM -9.9 °F - -14.1 °F 82% 30.42 in 2.0 mi Calm Calm - N/A   Partly Cloudy
1:05 AM -11.2 °F - -16.6 °F 77% 30.16 in 10.0 mi Calm Calm - N/A   Partly Cloudy
1:17 AM -9.4 °F - -14.8 °F 77% 30.16 in 1.5 mi Calm Calm - N/A   Mostly Cloudy
1:22 AM -11.2 °F - -14.8 °F 84% 30.17 in 1.2 mi Calm Calm - N/A   Scattered Clouds
1:27 AM -13.0 °F - -16.6 °F 84% 30.17 in 2.0 mi Calm Calm - N/A   Mostly Cloudy
1:33 AM -7.6 °F - -11.2 °F 84% 30.17 in 3.0 mi Calm Calm - N/A   Scattered Clouds
1:41 AM -7.6 °F -16.5 °F -9.4 °F 92% 30.18 in 2.5 mi ENE 3.5 mph - N/A   Scattered Clouds
1:49 AM -11.2 °F - -11.2 °F 100% 30.17 in 3.0 mi Calm Calm - N/A   Partly Cloudy
1:53 AM -9.9 °F -19.2 °F -13.0 °F 86% 30.41 in 2.0 mi ENE 3.5 mph - N/A   Partly Cloudy
2:17 AM -14.8 °F -29.1 °F -18.4 °F 84% 30.18 in 9.0 mi North 5.8 mph - N/A   Clear
2:35 AM -9.4 °F -20.9 °F -13.0 °F 84% 30.19 in 10.0 mi North 4.6 mph - N/A   Partly Cloudy
2:44 AM -7.6 °F -18.8 °F -11.2 °F 84% 30.19 in 1.8 mi NNE 4.6 mph - N/A   Mostly Cloudy
2:48 AM -7.6 °F -18.8 °F -11.2 °F 84% 30.19 in 0.8 mi NNE 4.6 mph - N/A   Mist
2:53 AM -8.0 °F -16.9 °F -11.0 °F 86% 30.41 in 0.5 mi NNE 3.5 mph - N/A Fog Light Freezing Fog
3:49 AM -5.8 °F - -9.4 °F 84% 30.17 in 1.8 mi Calm Calm - N/A   Haze
3:51 AM -5.8 °F -14.5 °F -11.2 °F 77% 30.17 in 3.0 mi SW 3.5 mph - N/A   Haze
3:53 AM -5.1 °F -13.6 °F -11.0 °F 76% 30.40 in 5.0 mi SW 3.5 mph - N/A   Haze
4:53 AM -2.9 °F - -8.0 °F 79% 30.42 in 10.0 mi Calm Calm - N/A   Overcast
5:53 AM -2.9 °F - -9.0 °F 75% 30.46 in 10.0 mi Calm Calm - N/A   Overcast
6:08 AM -2.2 °F - -7.6 °F 78% 30.19 in 1.8 mi Calm Calm - N/A   Haze
6:30 AM -0.4 °F - -5.8 °F 78% 30.19 in 1.2 mi Calm Calm - N/A   Haze
6:34 AM -0.4 °F - -5.8 °F 78% 30.19 in 2.0 mi Calm Calm - N/A   Haze
6:53 AM -0.9 °F - -5.1 °F 83% 30.48 in 2.0 mi Calm Calm - N/A   Overcast
7:17 AM -0.4 °F - -4.0 °F 85% 30.20 in 4.0 mi Calm Calm - N/A   Overcast
7:53 AM 1.9 °F -5.6 °F -2.9 °F 80% 30.49 in 10.0 mi West 3.5 mph - N/A   Overcast
8:53 AM 3.9 °F - -0.9 °F 80% 30.50 in 10.0 mi Calm Calm - N/A   Overcast
9:26 AM 8.6 °F - 3.2 °F 79% 30.24 in 10.0 mi Calm Calm - N/A   Scattered Clouds
9:53 AM 8.1 °F - 3.9 °F 83% 30.50 in 9.0 mi Calm Calm - N/A   Clear
10:49 AM 10.4 °F - 5.0 °F 79% 30.24 in 6.0 mi Calm Calm - N/A   Haze
10:53 AM 10.0 °F - 5.0 °F 80% 30.49 in 8.0 mi Calm Calm - N/A   Mostly Cloudy
11:53 AM 10.0 °F 3.6 °F 5.0 °F 80% 30.48 in 10.0 mi SE 3.5 mph - N/A   Overcast
12:53 PM 10.9 °F 4.7 °F 6.1 °F 81% 30.45 in 10.0 mi SE 3.5 mph - N/A   Overcast
1:53 PM 16.0 °F - 7.0 °F 68% 30.45 in 10.0 mi Calm Calm - N/A   Overcast
2:53 PM 16.0 °F 10.4 °F 6.1 °F 65% 30.45 in 10.0 mi NE 3.5 mph - N/A   Scattered Clouds
3:53 PM 12.0 °F 2.7 °F 5.0 °F 73% 30.45 in 10.0 mi NNE 5.8 mph - N/A   Clear
4:53 PM 6.1 °F -2.8 °F 1.0 °F 80% 30.47 in 10.0 mi NNW 4.6 mph - N/A   Clear
5:53 PM 1.0 °F -8.7 °F -2.9 °F 83% 30.51 in 10.0 mi North 4.6 mph - N/A   Clear
6:53 PM -4.0 °F - -8.0 °F 83% 30.53 in 10.0 mi Calm Calm - N/A   Clear
7:53 PM -4.0 °F -14.6 °F -8.0 °F 83% 30.52 in 10.0 mi West 4.6 mph - N/A   Clear
8:53 PM -5.1 °F - -9.0 °F 83% 30.53 in 10.0 mi Calm Calm - N/A   Clear
9:53 PM -5.1 °F -19.1 °F -9.9 °F 80% 30.51 in 10.0 mi West 6.9 mph - N/A   Clear
10:53 PM -6.0 °F - -9.9 °F 83% 30.52 in 10.0 mi Calm Calm - N/A   Clear
11:53 PM -8.0 °F -19.2 °F -11.0 °F 86% 30.53 in 10.0 mi SW 4.6 mph - N/A   Clear